LAPAN-A2 (IO-86)

Last updated on Tue Jun 10 2025 00:02:27 GMT+0000 (Coordinated Universal Time)

1 40931U 15052B 25151.18580175 .00001241 00000+0 78118-4 0 9995 2 40931 6.0006 24.0987 0012733 338.8432 21.1169 14.78805930523047

Satellite not in orbit

LAPAN-A2 (IO-86)